[[{"header":{"parameterUnit":"m.s-1","parameterCategory":1,"la1":30.2991,"la2":30.254,"lo1":-89.0895,"lo2":-89.0444,"dy":0.0017,"dx":0.0017,"nx":28,"ny":28,"refTime":"2024-05-14T21:00:00:Z","depth":0,"parameterNumber":2,"parameterNumberName":"U-component_of_WINDS"},"data":[0,0,0,0,0,0,0,0,0,0,0,0,0,0,0,0,0,0,0,0,0,0,0,0,0,0,0,0,0,0,0,0,0,0,0,0,0,0,0,0,0,0,0,0,0,0,0,0,0,0,0,0,0,0,0,0,0,0,3.1882,3.1883,0,3.1954,3.1955,3.1956,3.1906,3.1904,3.1901,3.1899,3.1977,3.1981,3.1985,0,0,0,0,0,0,0,0,0,0,0,0,0,3.1707,3.1711,3.1882,3.1883,3.1884,3.1954,3.1955,3.1956,3.1906,3.1904,3.1901,3.1898,3.1976,3.1981,3.1986,0,0,0,0,0,0,0,0,0,0,0,0,0,3.1782,3.1712,3.1882,3.1868,3.1867,3.1954,3.1955,3.1956,3.1907,3.1904,3.19,3.1897,3.1974,3.198,3.1987,3.2093,0,0,3.2006,3.2008,0,0,0,0,0,0,0,0,3.1778,3.1788,3.1869,3.1869,3.1868,3.1917,3.1922,3.2002,3.1908,3.1892,3.1899,3.1895,3.196,3.1968,3.1989,3.2096,3.21,3.2006,3.201,3.2013,3.2014,0,0,0,0,0,0,0,3.1773,3.1785,3.1911,3.187,3.187,3.1859,3.1866,3.1937,3.1944,3.1893,3.189,3.1899,3.196,3.1983,3.199,3.2101,3.2006,3.2012,3.2015,3.2018,3.2301,3.2305,0,0,0,0,0,0,3.1768,3.1781,3.1909,3.1913,3.1814,3.1865,3.1873,3.1905,3.1943,3.1946,3.1901,3.1896,3.1974,3.1983,3.1993,3.212,3.2013,3.2019,3.2022,3.2298,3.2302,3.2306,0,0,0,0,0,0,3.1765,3.178,3.1906,3.1846,3.1861,3.1872,3.1909,3.1908,3.1931,3.195,3.1951,3.1923,3.1971,3.1984,3.2068,3.2122,3.2021,3.2027,3.2293,3.2299,3.2304,3.2376,0,0,0,0,0,0,3.176,3.1779,3.1818,3.1847,3.1865,3.1979,3.1912,3.1912,3.1942,3.1935,3.1971,3.1973,3.197,3.2059,3.2075,3.2129,3.2032,3.2288,3.2296,3.2303,3.2369,3.2384,3.2396,0,0,0,0,0,3.1754,3.1836,3.182,3.1836,3.1914,3.1982,3.1992,3.1985,3.1946,3.1987,3.1999,3.1972,3.2114,3.2068,3.2085,3.2143,3.2285,3.2294,3.2302,3.2363,3.2381,3.2396,0,0,0,0,0,0,3.1814,3.184,3.1822,3.1916,3.1947,3.1973,3.2024,3.2004,3.2047,3.204,3.2031,3.2039,3.2128,3.2144,3.2092,3.2248,3.2194,3.2206,3.2235,3.2252,3.2265,3.2259,3.2037,0,0,0,0,0,3.1838,3.189,3.191,3.1992,3.2008,3.2013,3.2043,3.2035,3.2067,3.208,3.2098,3.2132,3.2184,3.2219,3.2268,3.2371,3.2379,3.2419,3.2433,3.2444,3.2455,3.2512,3.2531,3.2334,3.2334,3.2334,0,0,3.1889,3.1909,3.1943,3.2004,3.2027,3.2083,3.2025,3.2086,3.2127,3.209,3.217,3.2185,3.2222,3.2317,3.236,3.2333,3.2511,3.2455,3.2463,3.2468,3.2523,3.2542,3.2558,3.234,3.2339,3.2338,0,0,3.201,3.203,3.21,3.2124,3.2159,3.2163,3.218,3.2209,3.2217,3.2298,3.2271,3.2322,3.2412,3.2439,3.2465,3.2598,3.2576,3.2615,3.2686,3.2742,3.2757,3.2771,3.282,3.2837,3.2625,3.2626,3.2626,0,3.2069,3.215,3.2139,3.2203,3.2231,3.2199,3.2271,3.2296,3.2346,3.2367,3.2336,3.2449,3.2471,3.2573,3.2605,3.2627,3.2648,3.2611,3.2756,3.2769,3.2782,3.2828,3.2846,3.263,3.263,3.2629,3.2629,0,3.2221,3.2278,3.2331,3.2379,3.2414,3.2481,3.2483,3.2519,3.2509,3.2516,3.26,3.2626,3.268,3.2704,3.2694,3.2805,3.2787,3.2756,3.2701,3.2805,3.2849,3.2866,3.2637,3.2635,3.2634,3.2633,0,0,3.2381,3.2423,3.2443,3.2465,3.2502,3.2547,3.2614,3.2666,3.2698,3.2734,3.2791,3.2868,3.284,3.287,3.2864,3.2913,3.3018,3.2876,3.2877,3.2902,3.3143,3.3166,3.3187,3.3003,3.3007,3.3009,3.314,0,3.2505,3.262,3.2613,3.2722,3.2776,3.2746,3.2805,3.2835,3.2844,3.2892,3.2903,3.2958,3.2916,3.2934,3.2982,3.2995,3.3066,3.2986,3.3058,3.3061,3.305,3.3209,3.3234,3.3356,3.3157,3.316,3.3162,0,3.2664,3.2704,3.2818,3.2849,3.2871,3.2923,3.2971,3.3017,3.3051,3.3055,3.3088,3.3074,3.3144,3.3087,3.3184,3.3129,3.3159,3.317,3.3175,3.3182,3.3118,3.3221,3.3394,3.3413,3.3188,3.3186,3.3184,0,3.277,3.2854,3.2933,3.2953,3.299,3.3028,3.3045,3.3076,3.3108,3.3151,3.3172,3.3222,3.325,3.329,3.3291,3.3249,3.339,3.3333,3.3396,3.3396,3.3427,3.3425,3.3608,3.3445,3.3445,3.3445,3.3444,0,3.2909,3.298,3.2981,3.303,3.311,3.3102,3.3182,3.3196,3.3224,3.3276,3.3254,3.3304,3.3302,3.3353,3.3355,3.3436,3.3448,3.3454,3.3454,3.3456,3.3456,3.3476,3.3467,3.345,3.3448,3.3447,3.3447,0,3.3041,3.3045,3.313,3.3158,3.3167,3.3224,3.3249,3.3296,3.3304,3.337,3.3386,3.3398,3.3457,3.3462,3.3531,3.3532,3.363,3.362,3.3618,3.3617,3.368,3.3674,3.3883,3.391,3.3729,3.3731,3.3732,0,3.313,3.3184,3.3218,3.3251,3.327,3.3324,3.3356,3.3352,3.3387,3.3431,3.3473,3.353,3.3575,3.3672,3.3688,3.3741,3.3733,3.3802,3.3741,3.3742,3.3735,3.3732,3.3738,3.3815,3.3817,3.3818,3.3819,0,3.3287,3.3286,3.3333,3.3381,3.3421,3.3459,3.3494,3.3523,3.3523,3.3564,3.3624,3.3659,3.3729,3.3787,3.3839,3.3859,3.384,3.3839,3.3856,3.386,3.3856,3.386,3.3651,3.3834,3.3833,3.3831,3.3831,3.383,3.34,3.3448,3.3479,3.3533,3.3559,3.3593,3.3639,3.3652,3.3701,3.3757,3.3752,3.3819,3.3854,3.3921,3.3945,3.3999,3.3975,3.4001,3.4007,3.4014,3.4021,3.3848,3.4008,3.4008,3.4007,3.4007,3.4007,0,3.3557,3.3576,3.3625,3.3675,3.3718,3.3695,3.3734,3.3772,3.383,3.3863,3.3908,3.3978,3.4034,3.4055,3.411,3.4149,3.4142,3.4163,3.4161,3.4166,3.4038,3.4017,3.4168,3.4168,3.4168,3.4168,3.4168,3.4168,3.3643,3.3722,3.3725,3.3818,3.3837,3.3901,3.3925,3.3957,3.3983,3.4062,3.4108,3.412,3.4149,3.4206,3.4257,3.4262,3.4284,3.4309,3.4311,3.4191,3.4175,3.4159,3.414,3.4314,3.4314,3.4434,3.4436,3.4436]},{"header":{"parameterUnit":"m.s-1","parameterCategory":1,"la1":30.2991,"la2":30.254,"lo1":-89.0895,"lo2":-89.0444,"dy":0.0017,"dx":0.0017,"nx":28,"ny":28,"refTime":"2024-05-14T21:00:00:Z","depth":0,"parameterNumber":3,"parameterNumberName":"V-component_of_WINDS"},"data":[0,0,0,0,0,0,0,0,0,0,0,0,0,0,0,0,0,0,0,0,0,0,0,0,0,0,0,0,0,0,0,0,0,0,0,0,0,0,0,0,0,0,0,0,0,0,0,0,0,0,0,0,0,0,0,0,0,0,-0.5562,-0.5562,0,-0.5541,-0.5541,-0.5541,-0.5546,-0.5546,-0.5547,-0.5547,-0.5525,-0.5524,-0.5523,0,0,0,0,0,0,0,0,0,0,0,0,0,-0.5606,-0.5605,-0.5562,-0.5562,-0.5561,-0.5541,-0.5541,-0.5541,-0.5546,-0.5546,-0.5547,-0.5547,-0.5525,-0.5524,-0.5523,0,0,0,0,0,0,0,0,0,0,0,0,0,-0.5586,-0.5604,-0.5562,-0.5562,-0.5561,-0.5541,-0.5541,-0.5541,-0.5546,-0.5546,-0.5547,-0.5548,-0.5526,-0.5524,-0.5523,-0.5501,0,0,-0.5518,-0.5518,0,0,0,0,0,0,0,0,-0.5587,-0.5584,-0.5562,-0.5561,-0.5561,-0.5547,-0.5548,-0.5527,-0.5546,-0.5552,-0.5547,-0.5548,-0.5532,-0.553,-0.5524,-0.55,-0.5499,-0.5518,-0.5517,-0.5517,-0.5516,0,0,0,0,0,0,0,-0.5588,-0.5585,-0.5554,-0.5561,-0.5561,-0.5562,-0.556,-0.5544,-0.5538,-0.5551,-0.5551,-0.5549,-0.5532,-0.5526,-0.5524,-0.5499,-0.5518,-0.5517,-0.5516,-0.5515,-0.5458,-0.5457,0,0,0,0,0,0,-0.559,-0.5586,-0.5554,-0.5553,-0.5576,-0.5561,-0.5559,-0.5551,-0.5539,-0.5537,-0.5549,-0.5549,-0.5528,-0.5526,-0.5523,-0.5498,-0.5517,-0.5515,-0.5514,-0.5459,-0.5458,-0.5457,0,0,0,0,0,0,-0.5591,-0.5587,-0.5555,-0.557,-0.5566,-0.556,-0.5551,-0.555,-0.5544,-0.5537,-0.5536,-0.5544,-0.5528,-0.5525,-0.5507,-0.5497,-0.5515,-0.5513,-0.546,-0.5459,-0.5458,-0.5447,0,0,0,0,0,0,-0.5592,-0.5587,-0.5579,-0.557,-0.5565,-0.5539,-0.555,-0.5549,-0.5542,-0.5543,-0.5532,-0.5531,-0.5529,-0.5509,-0.5506,-0.5496,-0.5512,-0.546,-0.5459,-0.5458,-0.5448,-0.5446,-0.5444,0,0,0,0,0,-0.5594,-0.5576,-0.5579,-0.5575,-0.5554,-0.5539,-0.5536,-0.5534,-0.5541,-0.5533,-0.5528,-0.5531,-0.5499,-0.5507,-0.5503,-0.5493,-0.5461,-0.5459,-0.5458,-0.5449,-0.5446,-0.5444,0,0,0,0,0,0,-0.5584,-0.5575,-0.5577,-0.5556,-0.5548,-0.554,-0.5529,-0.5531,-0.5521,-0.5522,-0.552,-0.5518,-0.5499,-0.5494,-0.5504,-0.5472,-0.5481,-0.5479,-0.5476,-0.5473,-0.5471,-0.5472,-0.5511,0,0,0,0,0,-0.5579,-0.5567,-0.556,-0.5543,-0.5539,-0.5535,-0.5528,-0.5527,-0.5519,-0.5515,-0.5509,-0.55,-0.5489,-0.5481,-0.5469,-0.5448,-0.5446,-0.5439,-0.5437,-0.5435,-0.5433,-0.5422,-0.5419,-0.5453,-0.5453,-0.5453,0,0,-0.5569,-0.5563,-0.5556,-0.5541,-0.5534,-0.5522,-0.5532,-0.5518,-0.5509,-0.5513,-0.5496,-0.5491,-0.5482,-0.5462,-0.5453,-0.5457,-0.5424,-0.5433,-0.5432,-0.5431,-0.542,-0.5417,-0.5414,-0.5452,-0.5452,-0.5452,0,0,-0.5545,-0.5539,-0.5524,-0.5519,-0.551,-0.5507,-0.5504,-0.5495,-0.5493,-0.5476,-0.5479,-0.5468,-0.5448,-0.5441,-0.5435,-0.5411,-0.5413,-0.5408,-0.5395,-0.5385,-0.5382,-0.538,-0.5372,-0.5369,-0.5406,-0.5405,-0.5405,0,-0.5534,-0.5516,-0.5516,-0.5503,-0.5496,-0.5501,-0.5486,-0.548,-0.5468,-0.5463,-0.5468,-0.5444,-0.5438,-0.5417,-0.5411,-0.5406,-0.5402,-0.5408,-0.5383,-0.5381,-0.5378,-0.537,-0.5367,-0.5405,-0.5405,-0.5405,-0.5405,0,-0.5503,-0.549,-0.5479,-0.5468,-0.5461,-0.5446,-0.5445,-0.5437,-0.5439,-0.5436,-0.5419,-0.5412,-0.54,-0.5396,-0.5396,-0.5376,-0.5379,-0.5383,-0.5392,-0.5374,-0.5367,-0.5364,-0.5404,-0.5404,-0.5404,-0.5404,0,0,-0.5469,-0.546,-0.5456,-0.5452,-0.5443,-0.5434,-0.5421,-0.541,-0.5403,-0.5395,-0.5384,-0.5368,-0.5373,-0.5366,-0.5366,-0.5357,-0.5339,-0.5363,-0.5363,-0.5359,-0.5316,-0.5312,-0.5309,-0.5341,-0.5341,-0.534,-0.5317,0,-0.5444,-0.5421,-0.5422,-0.54,-0.5389,-0.5395,-0.5383,-0.5377,-0.5375,-0.5365,-0.5363,-0.5351,-0.5359,-0.5355,-0.5346,-0.5343,-0.533,-0.5345,-0.533,-0.533,-0.5332,-0.5305,-0.53,-0.5278,-0.5314,-0.5314,-0.5313,0,-0.5411,-0.5403,-0.538,-0.5375,-0.5371,-0.536,-0.5351,-0.5342,-0.5335,-0.5335,-0.5328,-0.533,-0.5317,-0.5328,-0.531,-0.532,-0.5314,-0.5312,-0.5311,-0.5309,-0.532,-0.5301,-0.5272,-0.5268,-0.5309,-0.5309,-0.5309,0,-0.5389,-0.5372,-0.5357,-0.5353,-0.5347,-0.5339,-0.5336,-0.5331,-0.5325,-0.5317,-0.5313,-0.5303,-0.5298,-0.5291,-0.5291,-0.5298,-0.5273,-0.5283,-0.5271,-0.5271,-0.5265,-0.5265,-0.5233,-0.5262,-0.5262,-0.5263,-0.5263,0,-0.536,-0.5346,-0.5347,-0.5338,-0.5323,-0.5325,-0.5309,-0.5307,-0.5302,-0.5293,-0.5297,-0.5288,-0.5289,-0.5279,-0.5279,-0.5265,-0.5262,-0.5261,-0.5261,-0.526,-0.526,-0.5256,-0.5257,-0.5262,-0.5262,-0.5262,-0.5262,0,-0.5331,-0.5332,-0.5316,-0.5312,-0.5311,-0.53,-0.5296,-0.5287,-0.5287,-0.5274,-0.5272,-0.527,-0.526,-0.526,-0.5247,-0.5247,-0.523,-0.5232,-0.5232,-0.5232,-0.5221,-0.5222,-0.5184,-0.5179,-0.5212,-0.5212,-0.5212,0,-0.5312,-0.5302,-0.5298,-0.5292,-0.5289,-0.5279,-0.5274,-0.5276,-0.527,-0.5263,-0.5255,-0.5246,-0.5238,-0.5221,-0.5219,-0.521,-0.5211,-0.5199,-0.521,-0.521,-0.5211,-0.5211,-0.521,-0.5196,-0.5196,-0.5195,-0.5195,0,-0.5279,-0.528,-0.5272,-0.5265,-0.5258,-0.5252,-0.5246,-0.5242,-0.5243,-0.5236,-0.5226,-0.5221,-0.5209,-0.52,-0.5191,-0.5188,-0.5192,-0.5192,-0.5189,-0.5188,-0.5188,-0.5188,-0.5225,-0.5193,-0.5193,-0.5193,-0.5193,-0.5193,-0.5254,-0.5246,-0.5242,-0.5233,-0.523,-0.5225,-0.5217,-0.5216,-0.5208,-0.5199,-0.5201,-0.519,-0.5186,-0.5175,-0.5172,-0.5163,-0.5167,-0.5163,-0.5161,-0.516,-0.5159,-0.5191,-0.5162,-0.5162,-0.5162,-0.5162,-0.5162,0,-0.5221,-0.5219,-0.5211,-0.5204,-0.5198,-0.5204,-0.5198,-0.5192,-0.5183,-0.5178,-0.5171,-0.5161,-0.5152,-0.515,-0.5142,-0.5135,-0.5137,-0.5133,-0.5133,-0.5132,-0.5156,-0.5159,-0.5132,-0.5132,-0.5132,-0.5132,-0.5132,-0.5132,-0.5202,-0.5188,-0.519,-0.5175,-0.5173,-0.5163,-0.516,-0.5156,-0.5152,-0.514,-0.5134,-0.5133,-0.513,-0.5122,-0.5114,-0.5114,-0.5111,-0.5106,-0.5106,-0.5128,-0.5131,-0.5133,-0.5137,-0.5105,-0.5105,-0.5084,-0.5083,-0.5083]}]]